When you browse on this site, cookies collect data to enhance your experience and personalize the content and advertising you see.
Visit our Privacy Policy to learn more. By continuing to use the site, you agree to this use of cookies and data.
  • In Belgium
  • List of Countries
  • For 7 days
  • Water Temperature
  • Satellite Maps
  • Weather Map
  • Weather Widgets
  • user-avatar
    Login

    Hourly Weather Greenwood

    Today, 18 December, Tuesday

    Time Temperature Precipitation Wind Pressure Humidity
    00:00 +8°C° 0 mm 1 mps 746 mmHg 76%
    01:00 +7°C° 0 mm 2 mps 746 mmHg 74%
    02:00 +6°C° 0 mm 2 mps 746 mmHg 73%
    03:00 +7°C° 0 mm 1 mps 746 mmHg 73%
    04:00 +6°C° 0 mm 1 mps 746 mmHg 73%
    05:00 +6°C° 0 mm 1 mps 746 mmHg 74%
    06:00 +6°C° 0 mm 1 mps 747 mmHg 74%
    07:00 +6°C° 0 mm 1 mps 747 mmHg 74%
    08:00 +7°C° 0 mm 1 mps 747 mmHg 68%
    09:00 +9°C° 0 mm 1 mps 747 mmHg 63%
    10:00 +11°C° 0 mm 1 mps 748 mmHg 58%
    11:00 +12°C° 0 mm 1 mps 748 mmHg 54%
    12:00 +14°C° 0 mm 2 mps 747 mmHg 51%
    13:00 +15°C° 0 mm 2 mps 747 mmHg 48%
    14:00 +15°C° 0 mm 2 mps 747 mmHg 49%
    15:00 +15°C° 0 mm 2 mps 747 mmHg 51%
    16:00 +15°C° 0 mm 2 mps 747 mmHg 53%
    17:00 +13°C° 0 mm 2 mps 747 mmHg 58%
    18:00 +11°C° 0 mm 1 mps 747 mmHg 63%
    19:00 +9°C° 0 mm 1 mps 748 mmHg 69%
    20:00 +8°C° 0 mm 1 mps 748 mmHg 69%
    21:00 +8°C° 0 mm 1 mps 748 mmHg 70%
    22:00 +6°C° 0 mm 2 mps 749 mmHg 71%
    23:00 +6°C° 0 mm 2 mps 749 mmHg 73%

    Tomorrow, 19 December, Wednesday

    Time Temperature Precipitation Wind Pressure Humidity
    00:00 +5°C° 0 mm 2 mps 749 mmHg 75%
    01:00 +5°C° 0 mm 2 mps 749 mmHg 77%
    02:00 +5°C° 0 mm 2 mps 749 mmHg 79%
    03:00 +5°C° 0 mm 1 mps 749 mmHg 82%
    04:00 +5°C° 0 mm 1 mps 748 mmHg 85%
    05:00 +5°C° 0 mm 1 mps 748 mmHg 87%
    06:00 +5°C° 0 mm 1 mps 748 mmHg 88%
    07:00 +5°C° 0 mm 1 mps 748 mmHg 89%
    08:00 +6°C° 0 mm 1 mps 749 mmHg 86%
    09:00 +7°C° 0 mm 1 mps 749 mmHg 82%
    10:00 +8°C° 0 mm 1 mps 749 mmHg 79%
    11:00 +10°C° 0 mm 1 mps 748 mmHg 76%
    12:00 +11°C° 0 mm 1 mps 748 mmHg 74%
    13:00 +12°C° 0 mm 1 mps 747 mmHg 71%
    14:00 +13°C° 0 mm 1 mps 747 mmHg 72%
    15:00 +13°C° 0 mm 1 mps 746 mmHg 73%
    16:00 +13°C° 0 mm 1 mps 746 mmHg 75%
    17:00 +12°C° 0 mm 1 mps 746 mmHg 81%
    18:00 +11°C° 0 mm 1 mps 746 mmHg 87%
    19:00 +10°C° 0 mm 1 mps 746 mmHg 93%
    20:00 +9°C° 0 mm 1 mps 746 mmHg 93%
    21:00 +8°C° 0 mm 2 mps 746 mmHg 94%
    22:00 +8°C° 0 mm 2 mps 746 mmHg 94%
    23:00 +8°C° 0 mm 2 mps 745 mmHg 95%

    Day after tomorrow, 20 December, Thursday

    Time Temperature Precipitation Wind Pressure Humidity
    00:00 +9°C° 0 mm 2 mps 745 mmHg 95%
    01:00 +9°C° 0 mm 2 mps 744 mmHg 95%
    02:00 +10°C° 0 mm 1 mps 744 mmHg 95%
    03:00 +10°C° 0 mm 1 mps 744 mmHg 96%
    04:00 +10°C° 0 mm 1 mps 744 mmHg 96%
    05:00 +10°C° 0 mm 1 mps 743 mmHg 96%
    06:00 +9°C° 0 mm 2 mps 743 mmHg 96%
    07:00 +9°C° 0 mm 2 mps 742 mmHg 97%
    08:00 +9°C° 0.4 mm 3 mps 742 mmHg 95%
    09:00 +10°C° 0.4 mm 3 mps 741 mmHg 94%
    10:00 +10°C° 0.4 mm 3 mps 741 mmHg 93%
    11:00 +10°C° 1.3 mm 4 mps 740 mmHg 94%
    12:00 +10°C° 1.3 mm 4 mps 739 mmHg 94%
    13:00 +11°C° 1.3 mm 4 mps 737 mmHg 94%
    14:00 +11°C° 2.9 mm 4 mps 737 mmHg 95%
    15:00 +11°C° 2.9 mm 3 mps 736 mmHg 95%
    16:00 +11°C° 2.9 mm 3 mps 735 mmHg 96%
    17:00 +11°C° 1.7 mm 3 mps 734 mmHg 96%
    18:00 +11°C° 1.7 mm 3 mps 734 mmHg 95%
    19:00 +11°C° 1.7 mm 3 mps 733 mmHg 95%
    20:00 +10°C° 0.9 mm 3 mps 733 mmHg 95%
    21:00 +10°C° 0.9 mm 3 mps 732 mmHg 96%
    22:00 +10°C° 0.9 mm 2 mps 732 mmHg 96%
    23:00 +10°C° 0 mm 2 mps 731 mmHg 97%

    21 December, Friday

    Time Temperature Precipitation Wind Pressure Humidity
    00:00 +11°C° 0 mm 1 mps 731 mmHg 97%
    01:00 +11°C° 0 mm 1 mps 730 mmHg 97%
    02:00 +11°C° 0.2 mm 1 mps 730 mmHg 97%
    03:00 +11°C° 0.2 mm 1 mps 729 mmHg 97%
    04:00 +11°C° 0.2 mm 1 mps 729 mmHg 97%
    05:00 +10°C° 0.4 mm 2 mps 729 mmHg 96%
    06:00 +11°C° 0.4 mm 3 mps 730 mmHg 94%
    07:00 +10°C° 0.4 mm 5 mps 730 mmHg 92%
    08:00 +10°C° 0 mm 5 mps 730 mmHg 89%
    09:00 +10°C° 0 mm 5 mps 731 mmHg 87%
    10:00 +10°C° 0 mm 5 mps 731 mmHg 84%
    11:00 +10°C° 0.1 mm 5 mps 731 mmHg 82%
    12:00 +10°C° 0.1 mm 5 mps 730 mmHg 81%
    13:00 +9°C° 0.1 mm 5 mps 730 mmHg 79%
    14:00 +9°C° 0.1 mm 5 mps 730 mmHg 79%
    15:00 +9°C° 0.1 mm 5 mps 730 mmHg 78%
    16:00 +9°C° 0.1 mm 5 mps 730 mmHg 78%
    17:00 +9°C° 0 mm 5 mps 731 mmHg 79%
    18:00 +8°C° 0 mm 4 mps 732 mmHg 80%
    19:00 +8°C° 0 mm 4 mps 733 mmHg 81%
    20:00 +7°C° 0 mm 4 mps 734 mmHg 80%
    21:00 +7°C° 0 mm 4 mps 735 mmHg 78%
    22:00 +6°C° 0 mm 4 mps 736 mmHg 77%
    23:00 +6°C° 0 mm 4 mps 737 mmHg 77%

    22 December, Saturday

    Time Temperature Precipitation Wind Pressure Humidity
    00:00 +5°C° 0 mm 4 mps 737 mmHg 76%
    01:00 +5°C° 0 mm 4 mps 738 mmHg 76%
    02:00 +4°C° 0 mm 4 mps 739 mmHg 77%
    03:00 +4°C° 0 mm 4 mps 740 mmHg 78%
    04:00 +3°C° 0 mm 3 mps 740 mmHg 79%
    05:00 +3°C° 0 mm 3 mps 741 mmHg 79%
    06:00 +2°C° 0 mm 3 mps 742 mmHg 80%
    07:00 +1°C° 0 mm 3 mps 743 mmHg 80%
    08:00 +2°C° 0 mm 3 mps 744 mmHg 75%
    09:00 +3°C° 0 mm 3 mps 744 mmHg 70%
    10:00 +4°C° 0 mm 3 mps 745 mmHg 64%
    11:00 +7°C° 0 mm 3 mps 745 mmHg 60%
    12:00 +9°C° 0 mm 3 mps 745 mmHg 55%
    13:00 +10°C° 0 mm 3 mps 745 mmHg 50%
    14:00 +10°C° 0 mm 3 mps 745 mmHg 50%
    15:00 +11°C° 0 mm 3 mps 745 mmHg 50%
    16:00 +12°C° 0 mm 2 mps 745 mmHg 51%
    17:00 +9°C° 0 mm 2 mps 746 mmHg 56%
    18:00 +8°C° 0 mm 2 mps 747 mmHg 61%
    19:00 +6°C° 0 mm 2 mps 747 mmHg 66%
    20:00 +5°C° 0 mm 2 mps 748 mmHg 68%
    21:00 +5°C° 0 mm 2 mps 748 mmHg 69%
    22:00 +4°C° 0 mm 2 mps 748 mmHg 71%
    23:00 +4°C° 0 mm 2 mps 748 mmHg 71%

    23 December, Sunday

    Time Temperature Precipitation Wind Pressure Humidity
    00:00 +4°C° 0 mm 2 mps 748 mmHg 72%
    01:00 +3°C° 0 mm 2 mps 748 mmHg 72%
    02:00 +3°C° 0 mm 2 mps 748 mmHg 72%
    03:00 +3°C° 0 mm 2 mps 749 mmHg 71%
    04:00 +3°C° 0 mm 2 mps 749 mmHg 71%
    05:00 +3°C° 0 mm 2 mps 749 mmHg 71%
    06:00 +2°C° 0 mm 2 mps 749 mmHg 71%
    07:00 +2°C° 0 mm 2 mps 749 mmHg 71%
    08:00 +4°C° 0 mm 2 mps 749 mmHg 66%
    09:00 +6°C° 0 mm 2 mps 750 mmHg 61%
    10:00 +8°C° 0 mm 2 mps 750 mmHg 57%
    11:00 +10°C° 0 mm 3 mps 750 mmHg 54%
    12:00 +12°C° 0 mm 3 mps 749 mmHg 52%
    13:00 +14°C° 0 mm 4 mps 749 mmHg 49%
    14:00 +14°C° 0 mm 4 mps 748 mmHg 52%
    15:00 +14°C° 0 mm 4 mps 748 mmHg 55%
    16:00 +13°C° 0 mm 4 mps 748 mmHg 59%
    17:00 +12°C° 0 mm 4 mps 749 mmHg 64%
    18:00 +10°C° 0 mm 3 mps 749 mmHg 70%
    19:00 +9°C° 0 mm 3 mps 750 mmHg 76%
    20:00 +8°C° 0 mm 3 mps 750 mmHg 78%
    21:00 +7°C° 0 mm 3 mps 750 mmHg 80%
    22:00 +7°C° 0 mm 2 mps 751 mmHg 82%
    23:00 +6°C° 0 mm 2 mps 751 mmHg 84%
    Show more